Regional Weather Roundup
Issued by NWS New Orleans/Baton Rouge, LA

Home | Current Version | Previous Version | Graphics & Text | Print | Product List | Glossary On
Versions: 1 2 3 4 5 6 7 8 9 10 11 12 13 14 15 16 17 18 19 20 21 22 23 24 25 26 27 28 29 30 31 32 33 34 35 36 37 38 39 40 41 42 43 44 45 46 47 48 49 50
913
ASUS44 KLIX 251710
RWRLIX
NEW ORLEANS REGIONAL WEATHER ROUNDUP
NATIONAL WEATHER SERVICE NEW ORLEANS LA
1200 PM CDT FRI JUL 25 2014

NOTE: "FAIR" INDICATES FEW OR NO CLOUDS BELOW 12,000 FEET WITH NO
      SIGNIFICANT WEATHER AND/OR OBSTRUCTIONS TO VISIBILITY.
      SKY/WX - SKY CONDITION AND SIGNIFICANT WEATHER.
      TMP - AIR TEMPERATURE.     DP    - DEWPOINT TEMPERATURE.
      RH  - RELATIVE HUMIDITY.   PRES  - PRESSURE.
      HI  - HEAT INDEX.          WCI   - WIND CHILL INDEX.

*  THESE STATIONS ARE NOT NWS OR FAA STATIONS AND ARE NOT UNDER
   NWS QUALITY CONTROL.

LAZ038-040-048-061>063-065>067-069-251800-
SOUTHEAST LOUISIANA

CITY           SKY/WX    TMP DP  RH WIND       PRES   REMARKS
N.O. AUDUBON     N/A     95  77  55 MISG        N/A  HX 109
N.O. INTL ARPT MOSUNNY   88  74  63 W6        30.04F HX  96
N.O. LAKEFRONT SUNNY     86  77  74 NW7       30.05S HX  97
N.O. DOWNTOWN* PTSUNNY   90  73  58 CALM      30.04F HX  98
SLIDELL        MOSUNNY   89  75  63 S5        30.04R HX  99
BATON ROUGE    MOSUNNY   89  73  59 SW7       30.04F HX  97
BOOTHVILLE     SUNNY     86  74  67 SW12      30.07R
BELLE CHASSE   PTSUNNY   89  72  56 W6        30.04F HX  96
BOGALUSA*        N/A     90  73  58 NW3       30.05F HX  98
GALLIANO*      NOT AVBL
NEW ROADS*       N/A     88  74  63 MISG      30.04F HX  97
GONZALES*        N/A     88  76  68 W3        30.04S HX  98
HAMMOND*       SUNNY     91  72  52 NW6       30.05F HX  98
HOUMA*         MOSUNNY   86  68  54 SW6       30.05S
PORT FOURCHON* MOSUNNY   86  75  70 W9        30.08S HX  95

$$

MSZ070-080>082-251800-
SOUTHERN MISSISSIPPI

CITY           SKY/WX    TMP DP  RH WIND       PRES   REMARKS
MCCOMB         MOSUNNY   88  71  57 VRB6      30.05S
GULFPORT       SUNNY     93  74  53 VRB7      30.02F HX 103
BILOXI         MOSUNNY   90  77  65 SW10      30.03S HX 102
PASCAGOULA     PTSUNNY   88  74  63 CALM      30.03S HX  96
STENNIS ARPT*  MOSUNNY  N/A N/A N/A MISG      30.04S

$$

COASTAL OBSERVATIONS
LAKE AND NEARSHORE STATIONS

STATION/POSITION TIME  TEMP    WIND        PRES    WAVE
                       AIR SEA DIR/SP/G            HT/PER
                 (UTC) (F)     (DEG/KT/KT) (MB)    (FT/S)
PASCAGOULA       1700   86     230/ 10/ 12 1016.5
WAVELAND YACHT   1700   87     310/  6/  9 1016.5
GRAND ISLE       1700   84 84  270/  7/  9 1018.7
SOUTHWEST PASS   1700   85 84  270/ 10/ 12 1018.6
NEW CANAL        1700   84 83  350/  5/  5 1017.8
SHELL BEACH      1700   84 81  340/  6/  7 1017.4

OFFSHORE STATIONS

STATION/POSITION TIME  TEMP    WIND        PRES    WAVE
                       AIR SEA DIR/SP/G            HT/PER
                 (UTC) (F)     (DEG/KT/KT) (MB)    (FT/S)
64 S DAUPHIN ISL 1628   83 86  280/ 12/ 14 1018.1

$$




USA.gov is the U.S. government's official web portal to all federal, state and local government web resources and services.